Theta_e
310 310 310 309 308 308 307 307 307 307 307 307 306 306 306 307 307 307 308 308 309 310 311 312 312 312 312 312 313 313 314 314 314 314 315 319 320 319 318 318 318 317 316 317 317 328 339 338 337 339 342 346 347 346 347 351 354 355 357 358 357 355 353 352 353 343 341 349 350 350 351 353 353 352 351 352 351 352 351 351 350 350 349 348 347 346 345 343
312 312 312 311 310 310 309 308 308 307 307 307 307 307 307 307 307 307 307 308 309 309 311 311 311 312 312 312 312 313 314 314 315 315 318 320 320 320 319 318 318 318 317 317 319 327 338 339 339 343 345 347 350 348 348 352 354 355 355 356 358 355 351 348 347 343 342 349 350 350 351 351 353 351 351 353 352 351 351 351 350 351 350 350 348 346 344 344
313 313 313 313 312 312 311 310 310 309 308 308 308 308 308 307 307 307 307 307 308 309 310 310 311 311 311 312 312 312 313 314 315 317 319 321 322 323 322 319 318 318 318 319 320 325 333 338 340 345 347 348 352 351 350 353 355 355 353 355 356 351 348 346 345 345 342 346 349 350 351 351 351 351 352 352 351 350 350 350 350 351 351 351 350 347 345 344
314 314 314 314 314 313 313 312 311 311 310 309 309 309 309 309 308 308 308 308 308 308 309 310 310 311 311 311 311 312 312 314 317 320 321 323 323 323 323 321 318 317 319 320 321 324 330 337 341 346 350 349 352 354 352 354 356 355 354 355 353 347 348 347 346 346 343 346 349 350 350 351 351 352 351 350 352 351 350 350 350 350 350 351 350 347 346 345
313 314 314 314 314 314 314 313 313 312 311 311 311 310 310 310 309 309 309 308 308 308 309 309 310 311 310 310 311 311 312 315 320 323 324 324 322 320 320 322 319 317 319 320 322 324 329 338 343 347 351 351 352 353 353 354 354 353 354 354 352 350 350 347 346 344 342 347 349 349 350 351 351 352 350 350 354 353 349 349 348 348 349 349 348 347 346 346
313 314 314 314 314 314 314 314 314 313 312 312 312 311 311 311 310 310 310 309 309 309 309 309 309 310 310 310 310 311 313 316 321 324 324 322 322 319 319 323 320 317 318 319 322 326 331 341 346 348 350 350 351 350 351 353 353 351 351 350 350 350 350 349 346 344 343 346 348 349 350 351 350 351 350 350 351 350 347 349 348 347 346 346 346 346 346 346
313 314 313 313 313 313 313 314 314 313 313 312 312 312 312 311 311 311 311 310 310 310 310 310 309 309 310 309 310 311 313 316 320 322 320 320 322 318 319 323 320 317 318 319 323 327 333 344 348 349 348 349 350 349 349 350 350 350 349 347 347 347 347 347 345 344 343 345 347 348 350 350 351 351 350 349 348 346 348 349 348 348 347 347 347 346 346 345
313 314 313 313 313 313 313 313 314 314 313 313 313 312 312 312 311 311 311 311 310 310 310 310 310 309 309 309 309 310 312 317 321 319 318 320 322 318 318 321 318 317 318 319 324 326 332 344 348 348 348 349 349 347 348 349 349 348 348 347 345 345 345 344 344 343 343 343 346 348 350 351 350 350 350 349 348 347 349 350 348 349 349 348 347 347 346 345
313 313 313 313 313 313 313 313 313 313 314 314 314 313 313 312 312 312 311 311 311 311 311 310 310 310 309 309 309 311 313 319 320 318 319 321 321 318 317 318 317 318 319 320 325 325 331 342 346 348 348 347 347 347 347 349 350 348 347 347 346 345 344 344 343 341 342 342 345 348 349 350 349 349 351 349 348 348 349 349 349 349 349 349 348 347 346 345
313 313 313 313 313 313 312 312 313 313 313 314 314 314 313 313 313 312 312 312 311 311 311 310 310 310 309 309 311 313 317 320 319 319 321 322 323 319 317 319 319 320 321 322 325 325 329 333 337 343 345 343 342 343 345 347 348 346 345 345 344 344 343 343 341 340 341 341 343 348 349 349 347 349 352 349 348 349 349 350 350 349 349 348 348 348 348 346
311 311 312 312 312 312 312 311 311 312 313 315 315 314 314 314 313 312 312 312 312 311 311 311 311 310 309 309 311 314 317 319 319 320 322 321 323 321 318 321 323 323 323 323 323 324 326 324 327 338 344 341 338 337 340 343 343 342 341 341 339 338 336 336 337 338 340 340 341 346 347 347 345 347 349 348 349 349 349 350 350 350 350 349 349 349 349 348
310 310 310 310 310 310 310 310 310 311 312 315 315 314 313 313 313 312 312 312 312 311 311 311 311 310 309 308 310 315 316 317 319 321 323 320 320 322 320 321 323 324 324 324 323 322 324 323 326 336 340 337 337 336 337 338 336 336 336 336 334 331 329 330 331 334 338 339 339 342 345 346 346 346 346 347 350 349 349 351 351 351 350 350 350 350 350 349
310 310 310 310 309 309 309 310 309 310 312 314 314 313 313 313 312 311 312 312 312 311 311 311 311 310 309 309 312 315 316 316 318 319 322 320 318 321 321 320 321 323 324 324 324 323 323 323 327 334 334 334 336 336 336 335 333 335 333 330 330 329 329 329 329 334 339 338 337 341 343 345 346 344 345 348 350 350 350 351 351 351 350 350 351 350 351 350
310 310 310 310 309 309 310 310 310 310 311 312 312 312 312 312 311 313 315 315 315 314 312 311 311 310 309 310 314 315 315 315 316 318 321 321 319 319 321 322 321 322 324 324 323 323 322 323 326 331 332 333 334 333 334 331 330 334 332 329 328 327 329 330 329 334 339 337 337 341 339 342 344 342 346 350 350 350 350 351 351 351 351 350 351 351 351 351
309 309 309 309 309 309 310 310 310 311 311 312 312 312 311 311 314 316 318 319 319 318 315 313 311 309 309 311 313 315 316 315 316 317 320 321 320 320 321 322 322 323 324 323 323 323 322 323 325 327 327 328 329 328 330 331 329 330 330 330 328 325 328 330 328 329 334 335 335 339 337 338 338 340 348 350 350 351 350 351 351 351 352 351 352 351 351 352
308 308 309 309 309 310 310 310 311 311 312 311 311 311 311 313 316 318 319 319 319 319 316 313 310 309 312 314 314 316 317 317 317 317 318 320 320 321 321 322 323 323 323 324 324 323 323 324 324 324 323 325 328 327 328 330 331 332 330 329 326 324 326 328 328 328 332 334 333 336 338 339 337 340 349 352 350 351 350 351 351 350 352 352 352 352 352 352
306 307 307 308 308 309 309 310 311 312 313 311 310 311 312 314 317 318 320 319 319 319 317 315 314 312 315 317 316 317 318 319 319 318 318 319 320 320 320 322 324 323 323 324 324 324 324 325 325 326 325 326 329 329 325 323 328 332 328 324 325 325 324 326 329 328 331 335 334 333 335 341 346 346 349 352 350 351 350 350 351 351 351 352 352 352 352 352
304 305 305 306 306 307 308 308 310 312 312 311 310 312 313 314 316 317 320 320 318 319 319 319 318 317 318 318 317 319 320 321 322 321 321 320 320 319 318 321 326 325 323 324 325 324 325 326 326 329 328 326 328 327 322 323 330 331 327 324 324 325 325 325 327 327 331 337 336 334 332 338 352 350 348 351 350 350 351 350 351 351 351 351 352 352 352 352
303 303 304 304 304 305 306 306 308 310 311 311 310 312 314 314 315 318 321 320 316 317 321 321 320 319 319 318 317 319 320 321 322 323 324 322 322 321 318 320 324 325 325 326 327 325 325 326 326 328 328 326 326 324 323 327 332 332 329 327 325 325 325 326 327 327 328 333 337 336 331 335 353 354 349 351 351 350 351 351 351 351 351 351 351 351 351 351
303 303 303 303 304 303 304 305 306 309 310 310 311 312 312 311 314 317 316 317 316 316 318 318 318 319 320 319 319 320 319 320 321 322 324 325 324 323 319 319 321 324 326 328 327 325 326 328 326 326 327 326 326 325 326 329 330 329 328 325 324 323 324 325 326 327 327 331 340 342 334 335 352 354 350 349 350 350 349 350 351 351 351 351 351 351 351 351
302 302 302 303 303 303 304 304 305 309 309 309 311 311 309 307 311 312 310 313 316 315 315 316 317 316 318 319 318 319 319 319 320 321 324 325 326 324 319 319 322 323 325 326 325 324 326 328 327 326 327 328 328 326 327 328 327 327 326 324 323 322 322 323 324 326 326 329 335 340 336 336 349 353 350 350 350 350 349 349 350 351 351 351 351 351 351 351
301 302 302 302 302 302 304 303 305 309 308 308 310 309 306 305 307 308 307 310 314 314 315 315 315 314 316 318 317 317 317 318 319 320 323 325 326 324 320 319 321 322 323 325 325 324 324 327 327 326 327 329 329 327 327 327 326 325 324 322 321 321 322 324 324 325 325 325 331 336 334 335 346 352 351 350 350 349 349 350 350 351 351 350 351 351 351 351
301 301 301 302 302 302 303 302 306 309 307 308 310 308 306 306 306 307 309 310 312 313 314 315 315 315 316 317 317 316 316 316 318 319 321 323 324 323 320 319 320 322 323 325 326 324 322 325 326 325 326 328 328 327 326 326 325 324 323 320 320 321 321 323 326 327 326 326 333 339 337 342 351 353 352 349 349 350 349 349 350 350 351 350 351 351 351 351
301 301 301 301 301 302 302 302 305 307 306 309 310 307 306 306 306 308 310 312 312 313 315 316 316 315 316 317 317 316 316 316 317 319 320 322 322 322 321 319 320 322 322 324 325 324 324 324 324 324 326 327 326 326 327 326 325 325 324 322 322 323 322 323 326 328 327 327 335 338 338 349 357 354 354 351 349 350 349 349 350 349 351 350 350 351 351 351
300 300 301 301 301 301 302 302 304 304 305 309 310 307 307 306 306 309 310 313 315 314 314 316 315 315 316 315 316 316 316 316 317 319 320 321 323 323 321 320 320 321 322 323 324 324 325 323 322 324 326 326 326 326 326 326 325 325 326 325 324 324 323 325 325 326 324 324 333 334 329 343 357 352 352 352 350 351 349 349 350 349 350 350 350 350 350 351
300 301 301 301 301 301 302 302 303 303 305 308 308 307 307 307 308 310 311 314 318 317 315 316 316 316 316 314 314 315 317 318 318 319 319 321 324 324 322 320 320 321 321 323 323 323 324 322 322 324 325 325 326 325 325 326 325 324 327 327 326 325 324 324 323 323 322 323 332 332 327 335 347 348 350 352 352 352 350 349 349 349 349 350 350 350 350 351
300 301 301 301 301 301 301 302 302 303 306 308 307 307 308 307 308 311 313 317 322 320 317 317 316 316 316 315 315 317 319 320 318 319 319 320 324 324 324 322 321 321 321 322 322 322 324 323 322 324 324 324 324 324 325 326 324 323 328 329 327 327 325 324 323 322 323 326 327 330 332 329 331 340 347 350 353 352 351 350 348 348 349 349 350 349 350 350
300 300 301 301 301 301 301 303 304 305 307 307 307 308 308 307 309 312 315 320 325 323 318 316 315 315 315 315 316 317 318 319 318 319 318 320 323 323 323 322 321 321 322 322 321 322 324 324 323 323 322 323 322 323 325 325 324 325 327 328 327 326 326 325 323 322 325 324 318 324 331 325 327 344 346 346 353 352 351 351 348 347 348 348 349 349 350 350
300 300 301 301 301 301 301 304 305 307 308 308 307 308 308 308 311 313 316 321 324 321 318 317 315 314 314 314 316 316 315 316 317 317 318 321 323 322 322 321 320 322 322 322 322 323 324 323 323 323 322 323 322 324 326 324 325 326 326 327 325 324 325 328 326 322 323 322 317 321 326 320 326 344 344 342 350 351 350 351 347 346 346 347 349 348 349 349
299 300 300 301 301 301 301 304 306 306 308 308 307 308 308 310 313 316 320 323 322 319 317 317 316 314 314 314 315 315 314 315 316 316 318 321 323 322 322 321 321 323 322 322 322 323 324 322 322 323 322 323 323 324 324 323 324 325 326 326 324 325 326 330 332 326 319 318 318 320 325 321 321 333 340 340 347 348 347 349 347 345 345 345 347 348 348 348
299 299 300 301 302 302 303 304 305 306 309 309 308 308 309 312 316 320 323 321 318 319 318 318 316 315 316 315 314 315 315 315 315 316 318 320 321 322 321 321 322 322 322 322 322 322 323 323 325 324 323 322 324 324 321 323 323 324 327 324 323 327 325 322 324 323 317 317 319 321 326 323 318 326 339 339 340 344 345 346 347 345 344 344 345 346 347 348
299 299 300 301 302 303 304 305 305 306 309 310 309 309 310 312 314 317 320 319 317 318 317 316 315 315 316 316 316 316 316 316 316 316 317 318 321 322 322 323 322 320 320 320 320 322 322 324 325 324 324 323 323 324 322 322 323 324 326 323 321 324 323 317 319 320 318 319 323 324 323 320 320 331 342 339 337 339 341 342 344 344 344 343 344 345 346 347
299 299 300 302 303 304 304 305 305 306 309 310 309 311 313 313 315 315 315 316 317 315 315 315 315 315 315 316 317 317 316 316 316 317 317 318 321 322 322 323 322 322 323 320 319 320 320 322 323 322 324 324 323 324 321 322 324 322 323 322 320 321 320 319 321 320 319 320 325 326 323 320 324 333 340 338 337 336 335 338 340 341 343 342 343 344 345 346
300 299 300 303 304 305 304 304 304 305 308 311 311 312 313 313 317 318 315 316 315 314 315 316 315 316 317 317 316 315 316 316 316 316 319 319 320 322 322 322 322 324 327 322 318 320 319 320 323 322 323 324 324 324 323 325 324 321 323 323 321 322 321 320 320 320 321 324 324 323 322 323 325 331 337 333 332 334 333 335 337 338 341 341 342 343 343 344
300 299 301 304 305 304 304 304 303 303 306 311 312 313 313 313 315 317 316 317 315 314 315 315 315 316 319 318 316 315 317 317 316 316 318 321 320 321 322 322 322 323 325 321 319 320 318 320 324 322 322 324 325 324 324 325 323 321 324 323 320 322 322 321 322 324 322 321 322 322 326 333 333 333 338 332 329 334 333 333 335 335 338 338 339 340 340 343
300 299 301 304 304 303 303 303 303 303 305 311 313 312 312 312 313 315 316 316 315 315 316 316 317 317 320 320 316 315 317 316 316 316 317 320 321 321 322 322 322 322 322 322 322 321 317 320 324 321 322 324 325 325 324 323 325 322 321 320 321 323 321 320 321 323 319 316 321 325 327 333 332 332 340 335 332 336 335 334 334 332 335 335 335 337 339 341
300 299 301 304 303 302 303 303 303 302 306 311 314 313 312 310 312 315 315 314 314 315 316 318 319 318 317 319 317 314 316 317 317 316 317 319 319 318 319 322 321 320 321 320 322 323 320 321 325 321 322 322 321 325 324 323 325 322 319 320 322 322 322 323 320 318 318 317 321 323 324 327 326 331 345 341 334 336 336 336 335 332 333 333 333 335 336 339
301 300 301 302 303 302 303 303 303 303 308 313 314 315 315 313 313 314 314 314 315 316 316 317 318 316 315 317 317 314 316 318 317 317 318 319 318 315 315 318 318 316 318 318 320 324 321 319 322 322 323 322 321 323 323 321 322 321 322 323 324 321 319 322 322 319 319 318 319 322 326 326 324 331 343 339 336 339 337 336 337 335 334 332 332 334 334 336
301 301 301 302 302 302 303 303 303 305 311 314 313 314 315 315 314 314 314 315 315 316 315 316 316 315 315 316 315 314 315 317 317 317 318 318 317 315 313 314 316 315 316 318 320 323 322 319 321 322 322 322 321 321 320 320 321 321 322 321 323 323 319 319 322 321 320 320 319 321 321 322 327 336 343 342 342 341 337 338 339 336 334 333 333 334 334 334
302 302 302 302 303 303 304 306 307 310 314 315 314 314 313 313 314 314 313 314 315 315 315 315 315 315 315 314 314 314 315 317 317 318 317 316 315 315 313 312 314 315 316 319 321 322 322 320 320 322 321 320 320 321 320 321 321 320 320 319 319 320 320 319 320 320 321 320 320 320 316 319 333 342 342 344 347 343 338 338 339 336 334 334 334 335 334 334
302 302 303 302 303 304 307 308 308 311 313 312 311 310 309 311 313 312 311 311 312 314 314 314 314 314 314 313 313 315 316 318 319 318 317 315 315 315 313 312 313 314 318 324 326 325 326 323 318 318 319 317 320 322 322 323 323 321 320 319 318 319 319 318 318 320 320 320 324 322 314 319 336 342 340 344 349 347 341 337 337 336 334 335 336 335 336 335
302 302 302 303 305 305 307 308 307 308 309 308 308 307 308 310 310 309 309 309 310 312 312 312 312 313 313 314 315 315 316 319 319 319 317 314 314 314 312 311 312 314 320 325 325 324 327 326 319 318 320 320 323 324 322 322 323 322 322 321 321 321 319 317 318 320 319 320 325 325 317 322 338 341 339 346 349 343 337 334 335 334 333 335 337 336 337 337
302 302 302 303 305 305 306 307 306 306 306 307 307 307 308 309 309 309 309 308 309 310 311 311 311 312 312 314 314 314 315 318 318 317 316 315 313 312 311 311 312 315 321 325 325 323 325 327 322 320 323 324 323 324 324 324 323 321 322 322 320 320 319 319 322 324 322 318 321 322 317 322 341 344 338 340 340 333 330 330 332 332 332 335 335 336 338 337
302 302 302 302 304 305 306 306 305 305 306 306 306 306 307 308 308 308 308 308 309 309 309 311 311 311 311 312 314 314 314 317 317 314 313 314 314 312 311 312 311 314 319 324 324 322 324 329 324 319 320 320 319 322 322 322 323 322 323 323 321 321 321 319 323 325 321 319 320 320 316 325 350 353 339 335 335 335 333 330 329 331 332 333 334 336 337 337
302 303 303 302 303 304 305 305 304 304 305 305 305 305 306 307 307 308 308 308 308 308 308 309 310 310 310 311 313 313 312 314 316 314 311 312 313 312 311 312 311 313 318 321 321 319 324 330 325 319 320 319 318 323 323 322 323 323 324 323 322 322 320 318 321 319 319 323 322 318 321 336 351 346 335 335 337 338 336 329 327 330 331 331 334 335 336 337
302 302 303 303 303 304 304 304 304 304 305 305 304 304 305 306 307 308 308 308 308 307 308 308 309 309 309 311 312 312 311 311 313 313 312 311 312 311 311 312 311 313 318 319 317 319 326 331 328 323 324 322 321 325 326 324 322 322 322 323 322 323 321 320 319 317 323 328 322 321 331 335 334 333 335 338 337 336 339 335 329 329 331 331 333 334 335 337
302 302 302 303 303 304 304 304 304 304 304 305 305 305 305 305 306 307 307 307 307 307 307 308 308 308 308 309 311 311 311 311 311 312 311 311 311 311 311 311 311 314 317 315 315 321 325 328 327 325 325 324 322 323 322 322 323 323 323 323 322 323 323 320 318 320 329 326 318 327 338 328 326 336 339 339 340 339 342 340 329 326 330 332 332 332 334 335
302 303 303 303 303 304 303 303 303 304 304 304 304 305 305 305 305 306 307 307 306 307 308 308 308 307 307 308 309 311 312 312 312 312 311 311 312 311 311 312 311 313 313 312 313 319 322 325 326 322 321 321 320 320 320 321 323 323 323 323 321 322 322 320 320 324 330 323 317 329 339 329 331 341 340 340 342 337 336 334 326 324 328 329 330 330 331 332
303 303 303 303 303 303 303 303 304 304 304 304 305 305 305 305 305 305 306 306 306 306 307 308 308 307 307 307 309 312 312 311 312 312 311 312 311 311 312 313 312 311 311 311 312 315 320 327 326 320 319 320 319 320 321 321 322 322 322 322 321 321 321 320 322 324 326 324 323 331 337 333 332 337 338 336 330 326 328 327 324 325 327 327 328 329 328 330
303 303 303 303 303 303 303 303 304 304 303 304 305 305 304 305 305 305 305 305 306 306 306 307 307 306 307 307 308 310 310 310 311 311 311 311 311 312 313 314 312 311 310 311 313 314 319 324 323 319 320 321 320 321 321 319 320 321 322 323 321 320 321 320 322 323 323 324 326 329 332 333 332 335 337 328 321 322 326 325 324 326 326 327 329 328 329 331
302 303 303 303 303 303 304 304 304 304 303 304 304 304 304 304 304 304 305 305 306 306 305 305 306 306 306 307 308 308 308 308 309 309 309 310 310 311 312 312 311 310 311 313 313 315 318 322 322 321 322 323 321 320 319 318 320 322 323 325 324 322 321 320 321 324 324 324 325 324 325 328 332 335 334 327 324 329 332 326 323 324 326 327 329 330 331 330
303 303 302 302 303 303 304 304 303 303 304 304 304 304 303 304 304 304 305 306 306 306 305 305 305 306 306 307 308 308 308 307 308 308 308 309 309 309 310 310 310 310 312 313 313 316 318 320 321 321 323 325 322 318 318 320 323 323 321 324 325 323 323 322 322 325 325 323 324 322 322 326 332 333 332 330 329 333 332 325 321 323 325 327 329 331 330 329
Wind_Speed
16 16 16 16 16 16 16 16 16 16 16 16 16 16 16 17 17 18 18 18 18 18 17 16 15 16 16 17 17 17 18 19 19 21 25 18 11 15 18 16 14 12 16 18 17 19 26 26 26 27 28 24 15 19 21 12 9 9 3 2 4 3 3 4 4 4 2 5 8 15 20 14 11 14 13 10 8 14 19 9 12 12 4 11 16 23 34 32
17 18 17 17 17 17 17 17 17 17 17 17 16 17 17 17 17 17 18 18 19 18 18 17 16 16 16 16 17 17 18 19 20 24 23 13 11 17 18 18 19 17 16 20 21 23 29 30 30 28 28 22 12 16 17 13 12 8 2 1 5 4 3 3 3 4 2 7 10 13 19 16 15 17 18 11 8 16 13 7 13 10 8 15 18 28 35 33
18 18 18 18 18 18 18 18 18 18 18 18 18 18 18 18 18 18 18 18 19 19 19 17 17 17 15 16 16 16 17 18 22 23 14 7 10 14 16 19 21 20 18 20 20 22 27 29 31 27 25 18 12 16 15 12 11 9 5 2 6 5 5 7 8 11 7 10 11 9 15 13 16 20 17 11 10 15 11 12 16 14 19 21 25 34 35 35
19 19 19 19 19 19 19 19 19 19 19 19 19 19 20 20 19 19 19 19 19 19 19 18 17 17 16 16 15 14 16 17 18 13 3 3 6 9 15 20 23 23 18 17 15 17 23 27 30 27 21 13 12 15 13 14 11 8 8 5 5 3 4 8 9 12 8 16 15 12 13 9 16 19 16 16 11 6 12 22 26 25 28 28 33 37 36 37
21 21 21 21 21 20 20 20 20 20 20 20 20 20 20 20 21 21 20 19 19 19 19 18 17 17 16 15 14 13 11 9 5 3 2 3 4 7 12 19 24 25 21 18 14 15 22 28 29 25 17 9 10 11 10 18 14 6 11 12 10 7 5 6 5 6 5 17 15 13 12 11 17 15 18 23 12 10 22 32 32 33 33 34 39 39 38 39
21 22 22 22 22 22 22 22 22 21 21 21 21 21 21 21 21 21 21 20 19 20 20 18 17 16 16 15 14 12 5 4 5 4 3 5 4 5 8 18 25 26 24 20 17 18 25 29 28 21 14 7 9 8 8 19 19 7 8 13 16 15 11 10 6 5 2 12 13 14 15 17 17 12 21 27 17 15 25 32 31 32 33 36 41 42 41 41
21 21 22 23 23 23 23 24 24 23 23 23 22 22 21 22 21 21 21 21 20 20 19 19 17 16 16 14 13 11 11 16 10 3 10 9 5 4 5 17 26 27 26 22 20 22 27 30 27 20 12 5 7 9 9 14 18 12 8 10 15 16 16 16 14 11 5 12 17 18 15 18 18 12 17 27 23 11 14 27 31 31 34 38 41 42 43 43
21 21 22 22 22 23 23 24 24 25 25 25 24 23 23 22 22 22 22 21 20 19 20 19 17 16 15 14 12 10 17 22 11 6 11 10 6 3 7 19 26 27 25 23 22 23 27 30 27 18 9 6 5 6 10 9 11 12 10 10 11 13 18 20 17 15 11 13 19 18 13 20 24 15 15 27 25 9 11 26 30 32 36 40 43 42 42 42
21 21 22 22 22 23 23 24 24 24 25 25 26 25 24 23 23 23 22 21 20 19 20 19 18 17 14 14 10 8 19 21 14 11 9 10 8 6 11 19 25 26 23 21 22 23 26 28 28 20 6 7 8 4 8 7 5 9 12 13 13 16 20 21 17 14 14 15 19 16 11 20 22 12 11 26 24 10 16 28 30 35 38 41 43 43 43 43
22 22 22 23 23 23 24 24 24 24 25 25 26 26 26 25 24 23 23 21 20 19 19 18 18 16 15 14 7 6 16 13 7 8 5 11 11 9 15 20 23 24 22 20 21 24 25 24 27 24 7 6 8 7 8 7 5 8 12 15 16 19 21 21 18 14 14 16 22 18 11 19 21 11 8 18 21 15 22 30 32 37 39 42 42 42 43 43
23 23 23 24 24 25 24 24 25 24 24 25 25 26 26 25 24 23 22 21 20 18 18 19 17 16 16 14 12 11 14 11 9 7 4 13 14 11 16 21 22 22 22 22 22 23 23 21 22 22 10 7 6 5 9 10 11 15 15 14 15 15 18 18 16 13 9 12 26 24 12 14 15 11 10 16 22 21 27 32 33 37 38 40 41 41 41 41
23 24 24 25 26 26 26 26 26 25 25 25 25 26 26 25 24 23 22 21 19 17 18 18 16 17 15 17 24 22 14 12 11 7 8 14 13 11 14 20 21 20 19 21 21 20 21 20 20 21 11 6 5 2 5 7 9 14 12 9 10 9 12 13 11 10 8 8 23 21 3 5 11 11 12 18 25 26 30 32 33 36 36 37 38 40 40 40
24 25 25 26 26 27 28 28 27 27 26 25 26 26 26 24 22 22 21 19 17 16 16 16 16 16 14 17 26 23 15 14 14 11 11 11 11 11 13 18 21 20 19 17 16 16 20 20 21 26 17 6 4 2 5 5 5 9 5 4 6 6 8 8 3 5 7 7 21 19 0 7 14 11 12 21 28 29 29 31 32 33 34 35 35 37 39 40
25 26 26 27 27 28 29 29 28 28 27 26 26 26 24 22 20 19 18 17 15 13 14 15 15 14 15 20 23 19 16 18 21 20 15 11 9 11 15 19 20 21 20 17 14 13 18 22 21 22 19 13 7 5 6 6 4 5 3 2 2 2 7 5 3 3 2 6 25 21 4 9 11 11 17 25 32 32 29 29 31 32 33 34 35 36 37 39
26 26 27 27 28 29 30 30 30 28 27 27 26 24 22 19 17 16 14 13 11 10 11 12 14 12 12 21 23 18 16 18 22 22 19 18 15 13 17 21 21 20 20 19 17 14 16 21 21 14 13 15 12 6 5 4 3 1 1 4 2 2 7 8 4 4 2 6 23 19 5 6 6 12 23 30 33 33 29 29 31 31 32 34 35 36 36 38
28 28 28 28 28 28 29 30 30 29 28 27 25 21 18 16 14 12 10 8 7 5 5 7 12 11 7 12 14 14 15 15 16 18 21 23 19 16 17 20 21 20 19 19 18 16 12 14 17 14 11 9 6 3 1 3 4 1 2 4 4 2 4 7 6 3 3 3 12 13 5 3 3 13 25 30 33 32 27 27 30 31 32 34 36 36 36 36
30 30 30 29 29 29 29 30 30 29 28 26 22 17 16 14 11 9 7 5 6 3 1 4 7 8 9 10 8 9 10 10 10 13 20 23 22 20 17 18 20 20 20 18 16 14 9 9 10 9 8 5 3 5 3 6 6 2 1 3 4 4 3 4 6 5 1 4 7 11 9 5 3 12 25 30 33 30 25 26 30 31 32 33 35 35 36 37
32 32 31 31 30 30 29 29 30 29 27 24 19 16 14 12 10 11 10 8 8 2 1 4 8 3 9 11 9 6 4 5 7 10 15 20 22 23 21 19 19 20 17 12 11 12 10 8 7 3 3 5 4 7 7 6 6 4 4 3 4 4 4 6 6 4 3 1 6 9 11 8 4 7 21 30 34 30 27 28 30 31 32 32 33 34 36 38
32 33 33 33 32 31 30 29 30 28 24 20 17 14 11 10 10 11 11 11 9 4 3 6 11 4 6 6 7 9 8 7 7 10 13 17 20 22 23 20 20 20 14 6 6 12 12 5 5 5 5 8 8 9 9 4 5 6 6 4 4 4 6 6 5 5 3 3 6 7 11 11 5 6 14 24 32 30 26 25 26 27 29 30 31 34 36 39
32 32 33 34 32 33 30 29 31 24 20 20 17 11 9 11 7 6 12 18 17 16 17 16 18 19 19 15 12 9 9 9 9 11 12 14 18 21 24 19 15 14 10 6 4 10 13 6 6 9 7 8 8 9 9 4 4 5 4 3 5 5 7 6 5 5 2 2 6 6 8 10 7 8 11 20 26 22 20 21 23 27 29 31 33 34 36 40
33 32 34 34 33 34 30 31 29 18 19 21 15 11 11 12 6 7 19 24 23 21 26 29 27 31 33 29 23 17 12 10 12 14 11 13 18 18 22 20 10 7 7 8 6 7 12 9 9 10 7 7 8 7 8 7 6 6 5 5 5 6 8 8 5 6 2 2 7 6 5 8 7 8 9 17 19 17 22 23 25 30 31 33 34 36 38 38
32 31 34 34 34 35 30 32 25 13 20 17 8 13 14 14 11 9 13 17 27 29 27 30 30 36 39 35 33 28 17 11 15 19 14 15 19 17 18 17 9 6 6 7 6 4 7 9 9 9 7 7 7 7 9 9 8 6 5 4 6 6 5 7 6 5 2 3 7 7 7 7 6 8 10 15 17 21 31 34 34 37 34 34 36 38 39 35
32 32 34 34 35 34 31 31 19 10 20 12 4 12 15 16 17 14 10 11 24 30 27 30 32 37 39 36 34 29 21 14 16 23 22 19 21 20 18 14 10 8 7 8 9 7 6 7 8 11 8 9 7 7 9 7 6 6 5 5 6 4 2 4 5 4 2 4 4 3 4 5 2 6 9 16 21 21 27 32 32 35 36 39 42 42 41 38
32 32 33 34 35 34 32 29 14 10 19 9 2 10 15 18 17 16 12 8 13 18 22 27 27 31 33 29 25 26 26 20 17 22 26 26 22 18 16 14 11 9 9 13 13 10 7 6 8 13 10 11 8 6 8 6 5 5 6 8 7 4 4 5 4 5 4 3 2 1 3 6 2 6 7 13 17 15 18 23 23 26 32 35 35 35 38 40
32 31 32 33 34 34 32 25 15 17 19 5 2 10 14 17 16 15 10 6 8 9 11 14 16 20 21 17 16 21 21 19 25 28 26 31 29 16 11 14 11 9 13 13 10 9 9 6 8 12 10 11 11 8 8 8 6 6 9 12 8 5 4 4 3 5 5 5 3 2 2 6 3 6 7 7 10 13 15 17 21 26 29 30 29 31 36 38
33 32 32 32 34 35 31 24 20 23 16 1 4 12 14 14 13 10 5 2 5 4 2 3 7 6 6 12 16 15 8 10 27 33 25 28 33 20 9 9 8 10 12 9 5 5 6 6 8 10 10 11 11 10 9 9 6 8 8 8 7 7 6 5 2 1 2 5 5 2 4 5 5 5 7 7 10 15 14 13 19 25 28 30 32 33 36 38
32 33 32 32 34 34 31 26 22 22 16 8 10 12 13 12 9 6 2 2 5 4 4 2 4 2 2 12 22 17 3 3 12 25 30 29 31 25 12 8 7 7 7 5 3 3 6 10 9 9 10 9 10 9 8 11 8 7 5 9 8 8 8 7 5 5 4 4 5 2 4 4 6 6 8 9 11 12 13 13 16 22 28 32 34 35 37 40
31 33 33 32 32 30 28 25 19 18 18 17 15 12 12 11 6 2 1 2 4 2 3 1 2 3 2 12 27 17 1 3 4 14 31 31 28 22 11 10 10 9 10 9 7 4 8 12 12 12 10 7 8 7 9 12 10 4 7 9 7 8 7 6 6 5 3 1 7 5 5 4 7 5 4 8 11 11 14 17 15 19 29 33 35 37 39 41
30 32 33 33 31 27 23 20 18 18 20 19 15 11 11 8 3 1 2 3 4 1 2 2 4 2 4 11 21 14 5 2 3 7 25 29 28 19 8 11 12 8 11 12 10 4 5 14 18 13 9 8 7 7 11 13 10 4 5 3 2 4 3 3 5 4 1 2 9 8 5 5 7 4 2 6 9 12 14 16 15 20 30 34 36 38 39 41
30 31 33 33 31 26 19 15 17 20 21 20 14 10 8 4 2 3 2 4 2 2 3 3 3 4 3 7 7 11 7 4 5 8 21 21 23 16 7 11 11 5 6 9 10 5 2 10 16 10 9 11 8 7 10 13 10 4 4 3 1 2 2 2 1 2 1 7 9 8 7 6 7 4 6 6 8 13 13 12 14 18 26 32 35 38 40 41
31 31 32 33 29 21 16 15 17 19 19 19 14 8 4 0 2 3 5 3 2 3 5 4 3 6 1 2 3 5 5 5 2 8 12 10 12 9 6 9 6 4 4 5 8 8 4 3 6 6 12 13 7 6 8 9 9 5 3 4 1 4 2 0 2 3 6 9 5 7 8 7 8 6 7 8 10 15 15 14 16 17 24 33 36 39 42 43
32 32 31 31 23 12 14 19 19 19 18 15 12 6 1 1 1 4 5 4 3 2 4 2 3 6 4 4 3 5 4 3 3 6 7 7 8 8 7 8 7 5 6 7 4 5 6 5 3 4 12 14 8 5 5 4 6 6 4 6 4 3 1 3 2 2 7 8 2 5 6 5 9 6 7 11 11 13 14 17 20 21 27 35 37 41 44 44
31 32 32 27 16 8 14 20 19 19 17 12 9 4 3 2 4 6 5 2 1 2 3 2 5 6 4 3 3 4 3 3 4 5 6 6 7 9 7 6 9 7 4 6 5 3 4 5 5 4 6 12 12 7 5 4 5 8 5 6 6 4 3 5 5 3 4 5 3 4 5 3 6 4 9 13 13 16 20 24 28 30 34 39 43 46 45 44
31 33 31 20 12 12 16 20 19 20 18 10 5 2 3 5 4 2 3 2 2 3 4 4 7 6 4 2 4 3 0 2 1 3 6 5 6 8 5 3 8 6 4 4 5 6 6 5 8 10 6 10 13 10 8 7 5 7 6 6 5 5 6 5 4 4 4 4 3 2 4 4 3 4 9 13 15 21 26 31 34 35 38 42 45 44 41 42
30 32 27 13 13 18 18 21 22 20 17 9 2 1 5 6 2 1 2 3 2 4 7 7 5 3 3 2 3 5 2 2 5 2 4 6 6 7 6 5 7 6 5 5 3 4 9 8 6 10 8 12 13 9 8 9 5 5 5 5 6 6 5 3 4 6 3 1 2 2 3 5 4 5 7 7 12 17 22 27 28 30 36 38 36 33 35 40
29 31 22 11 16 22 19 22 22 19 16 6 1 3 5 3 1 0 2 3 2 4 8 8 2 1 4 3 4 7 5 3 6 4 1 4 4 1 3 3 4 6 5 5 4 3 6 7 2 4 6 11 14 11 10 9 5 2 5 7 6 5 6 4 4 2 1 2 4 2 3 5 4 5 6 6 8 10 14 17 19 26 33 32 28 29 35 41
30 32 23 12 20 24 19 20 20 18 12 1 4 4 3 1 1 0 3 5 4 5 4 3 2 1 2 2 3 7 7 5 5 4 1 2 3 5 4 4 4 2 3 3 4 3 4 5 3 7 8 11 14 14 10 11 10 6 6 7 3 5 4 4 2 2 2 4 5 2 5 5 3 5 5 5 8 9 11 13 14 21 26 26 27 31 36 40
33 32 20 14 22 25 19 18 17 14 6 3 4 5 1 2 4 4 5 6 5 3 1 0 2 1 3 2 3 6 6 4 5 4 2 0 2 6 5 4 6 7 8 7 2 3 2 4 5 8 12 7 8 10 6 8 10 6 5 7 5 3 4 3 3 4 4 4 5 3 5 5 6 5 3 5 9 10 11 12 13 16 18 22 28 32 35 39
32 26 15 16 22 23 21 17 13 6 2 2 4 4 2 2 6 9 11 9 4 2 1 3 2 2 2 2 2 5 5 3 4 3 2 3 1 4 8 6 6 10 13 6 2 3 2 3 5 6 8 6 5 6 6 6 7 3 2 5 4 3 4 4 4 4 4 4 3 4 5 5 7 7 6 8 11 11 11 11 11 14 18 25 30 33 36 39
29 18 11 19 22 21 18 10 3 1 3 1 3 2 4 4 7 13 16 11 4 3 2 2 2 2 2 2 2 2 3 3 4 2 1 4 1 2 9 8 7 12 14 6 1 2 1 4 5 4 1 5 4 5 9 9 8 5 4 5 4 2 2 3 2 3 4 4 3 3 6 5 5 6 10 11 11 11 12 12 11 14 22 30 34 37 39 41
25 9 9 21 21 18 14 9 5 4 0 2 2 3 8 7 7 12 15 13 5 4 3 3 3 2 2 2 2 2 3 1 3 2 1 4 3 2 8 10 8 10 10 4 4 4 2 2 4 2 1 3 4 8 13 15 12 10 7 7 7 4 4 4 4 3 3 5 5 4 6 7 4 5 8 10 10 10 12 13 11 14 23 30 35 40 43 43
17 6 12 22 19 17 14 7 5 5 1 4 7 6 10 9 7 8 11 12 7 3 3 3 2 2 1 1 1 2 3 1 2 2 2 4 4 2 9 16 14 10 6 3 2 3 1 1 3 3 3 4 6 8 10 13 13 12 10 9 8 6 6 6 7 4 3 3 2 3 5 9 5 7 9 9 10 11 13 13 12 16 25 30 34 40 43 43
13 14 17 20 18 17 12 4 5 6 2 7 10 9 11 9 7 8 8 7 6 3 3 2 1 3 2 1 2 2 3 2 3 3 4 4 3 4 13 22 18 10 6 3 3 5 4 1 3 3 3 3 5 6 5 4 6 8 8 8 8 8 8 8 6 4 4 4 2 2 7 8 5 5 8 8 8 9 11 13 14 17 24 29 33 37 38 39
17 20 17 18 18 16 10 4 5 5 5 10 10 8 10 9 9 10 7 5 6 4 2 2 2 2 2 2 2 3 3 3 3 4 4 2 1 7 18 24 17 8 5 5 5 5 4 1 1 0 2 4 4 5 5 4 1 4 6 7 9 11 11 7 3 4 4 7 8 6 8 7 5 3 4 6 7 6 9 13 15 17 21 24 26 31 35 36
17 13 11 19 19 15 11 6 6 5 6 10 9 7 8 8 10 15 12 6 7 7 3 4 4 3 3 4 3 3 5 4 2 3 4 2 1 6 16 21 14 6 7 11 11 5 2 1 1 2 5 7 5 5 5 2 3 3 3 8 12 13 14 10 4 4 6 7 9 7 7 6 6 4 5 7 6 7 10 11 12 16 21 21 21 26 31 32
11 5 6 16 17 11 10 9 10 7 6 8 7 5 7 7 8 15 15 7 11 13 6 3 6 6 5 6 4 3 5 4 3 2 2 3 2 3 12 16 11 9 10 14 16 7 1 1 0 3 4 4 2 5 4 1 3 5 4 6 11 13 15 12 8 8 6 5 7 8 7 5 7 5 6 7 6 8 10 9 9 16 21 22 21 23 24 26
5 3 4 9 9 8 9 10 11 8 7 8 4 3 7 8 6 9 10 7 12 15 6 3 8 8 5 7 4 2 4 4 2 2 2 3 3 4 10 10 6 11 11 10 13 7 2 3 2 1 1 2 3 9 10 5 4 6 8 9 10 12 15 15 14 9 8 6 10 10 8 7 8 7 8 9 8 7 9 9 11 15 18 19 18 18 19 22
2 4 7 6 3 4 6 9 11 9 10 9 4 3 7 8 7 7 6 6 10 11 5 3 9 9 6 6 3 0 2 3 2 2 3 3 4 5 8 5 3 12 12 7 8 4 3 2 3 3 6 7 6 10 11 7 5 7 10 12 11 12 16 19 17 10 10 10 14 10 10 10 8 8 9 10 9 9 11 12 12 12 13 15 17 18 20 22
3 5 7 6 4 5 8 12 12 9 9 8 4 4 6 7 8 7 4 4 7 7 5 3 7 10 8 5 3 1 1 2 2 3 2 3 4 3 4 3 3 11 12 6 5 3 1 2 3 4 7 9 9 9 8 6 5 7 10 11 12 14 16 18 16 12 12 13 12 8 10 11 9 8 9 11 11 10 9 10 10 11 13 14 16 20 22 22
5 5 7 7 7 9 11 10 8 6 6 6 3 3 5 6 9 9 6 4 5 4 5 6 8 10 8 4 3 3 2 1 2 2 2 3 3 1 1 2 2 8 9 4 4 4 1 1 4 4 5 8 9 7 6 8 8 9 10 10 11 13 15 15 13 10 10 11 10 9 9 9 8 6 7 11 11 6 6 8 12 17 18 16 17 20 21 21
8 9 9 8 5 6 6 6 4 4 3 3 2 4 6 7 9 11 10 7 5 2 4 8 10 8 6 5 4 4 4 5 4 6 7 6 5 4 3 2 3 5 5 2 2 3 1 1 3 4 3 5 6 6 10 13 12 10 12 11 10 10 10 10 9 9 10 10 10 12 10 7 7 6 7 11 11 7 7 9 16 21 19 17 18 20 20 19
10 10 9 6 4 3 3 3 3 3 2 2 4 7 7 8 11 11 8 5 4 6 8 10 9 7 4 4 5 5 9 13 13 15 16 14 13 12 11 10 8 4 2 1 2 2 1 1 1 2 1 5 7 7 10 11 9 8 8 7 8 10 10 9 8 9 11 12 10 12 11 8 8 7 7 9 10 9 10 11 15 18 16 15 18 21 21 21
Wind_Direction
342 341 337 333 330 326 323 321 317 316 314 312 311 309 307 306 305 304 303 301 300 298 296 297 297 295 296 296 295 296 294 290 288 280 272 275 287 273 262 256 251 243 223 212 214 193 173 172 176 176 172 170 179 186 186 189 187 189 198 233 231 240 227 214 214 218 187 158 159 166 161 145 150 164 159 158 156 151 159 169 175 185 245 192 177 169 167 165
342 342 339 335 332 328 325 322 319 318 314 312 310 307 306 304 303 302 301 300 299 297 295 296 295 294 295 296 297 300 298 296 293 281 276 287 284 268 257 246 240 233 217 206 208 196 181 174 173 172 169 168 177 184 189 195 190 190 165 229 230 218 217 226 236 274 303 164 164 170 167 157 161 164 163 161 146 152 155 152 162 159 149 166 169 168 169 168
342 340 338 335 332 329 327 324 322 319 315 313 308 306 304 301 301 299 299 298 297 296 293 294 294 294 294 295 299 302 304 306 298 287 283 274 252 249 241 230 220 215 210 204 206 203 193 179 172 169 166 171 178 178 188 195 195 204 192 224 240 230 249 272 267 278 281 167 157 163 166 160 164 167 165 156 149 165 171 158 156 152 152 159 165 168 170 171
339 337 335 334 331 329 327 325 323 320 316 313 309 307 303 300 299 296 297 296 295 295 292 293 292 292 293 295 298 302 312 313 297 284 257 224 249 252 236 222 207 202 199 197 201 203 197 182 174 169 165 177 188 184 192 193 186 192 200 223 248 243 255 271 275 276 241 167 158 157 160 161 168 174 168 148 143 194 202 183 176 173 168 164 165 169 172 173
338 336 335 333 331 329 327 325 323 320 317 313 310 306 303 300 297 295 294 293 293 293 290 291 290 291 292 293 296 299 317 328 293 192 181 258 287 273 237 217 203 195 187 184 181 182 189 181 172 170 171 182 188 193 212 205 195 195 216 229 252 268 277 276 302 316 205 166 156 153 166 173 169 183 178 159 157 208 205 195 186 180 176 171 170 171 173 175
338 336 335 333 332 330 327 326 323 321 318 314 311 307 304 300 297 295 291 289 289 289 289 289 289 288 289 291 294 291 287 279 226 174 291 290 280 285 235 208 196 188 185 184 177 174 179 174 169 173 179 189 194 199 213 206 207 232 239 231 243 249 254 261 275 322 178 163 166 172 181 170 165 195 190 178 186 205 204 195 186 182 181 176 173 172 174 177
338 336 335 334 332 330 327 326 323 321 318 314 311 307 305 301 299 296 290 288 284 285 286 286 289 286 287 289 287 280 251 252 242 238 291 273 254 299 221 193 185 182 182 183 179 175 175 172 172 179 178 195 209 211 223 212 210 227 251 239 245 245 247 258 267 281 239 191 195 183 173 171 179 195 191 196 204 215 210 192 184 181 177 174 172 174 177 179
338 336 335 333 331 329 327 325 323 320 317 313 311 307 305 301 299 296 292 288 281 281 280 281 287 283 287 285 281 279 253 255 266 295 278 244 230 265 192 177 175 179 179 183 185 179 176 175 180 183 179 205 197 196 218 229 224 228 247 250 259 259 259 268 270 269 248 218 202 182 177 188 191 183 186 206 210 228 204 184 181 176 172 174 175 176 178 181
338 336 335 333 331 330 327 325 322 319 316 312 309 307 305 302 299 296 290 286 280 277 275 276 281 280 284 277 273 273 259 266 278 277 258 215 214 212 192 176 173 179 179 187 194 187 179 179 187 186 178 222 222 234 204 207 230 228 244 256 264 264 265 269 265 250 235 221 193 180 199 201 193 181 199 209 208 218 188 177 177 175 173 175 177 178 180 183
339 337 336 334 332 331 328 327 323 320 315 310 308 306 305 303 299 295 288 285 280 275 272 270 273 275 277 267 244 244 264 275 271 264 233 197 201 192 192 183 177 181 184 191 196 194 191 191 196 192 201 242 229 250 224 217 254 256 263 264 262 266 270 269 266 252 227 213 191 183 211 206 192 189 218 208 200 197 177 172 176 176 176 177 178 181 183 186
342 341 339 337 334 332 331 330 327 323 316 310 308 306 306 303 298 293 287 284 279 274 269 266 268 268 270 257 228 232 259 260 248 268 220 189 195 195 193 187 184 186 189 192 196 202 205 206 199 190 211 245 218 251 249 246 266 279 285 281 274 278 281 272 270 258 219 206 196 190 207 200 190 210 219 192 187 188 175 171 176 178 179 179 179 182 184 188
346 344 342 339 337 334 333 333 331 327 320 313 310 309 308 303 297 293 289 286 281 274 265 262 262 261 264 254 242 242 251 250 244 241 180 170 183 197 197 196 197 196 195 193 195 203 206 208 196 186 195 217 202 270 273 253 270 285 288 286 291 308 295 274 268 237 192 201 194 183 198 198 199 220 204 183 179 179 175 172 176 179 180 181 182 183 186 189
348 346 344 341 338 336 334 334 334 330 323 317 315 314 310 303 300 297 293 290 283 272 262 257 255 255 251 249 252 251 246 245 243 224 185 164 174 191 200 205 207 207 208 204 202 205 207 210 202 198 201 186 165 200 273 295 321 307 295 261 297 340 305 275 272 200 177 198 181 165 148 225 214 211 175 179 177 169 171 173 177 180 181 183 185 186 187 190
348 346 344 341 339 336 334 334 334 331 325 322 320 318 311 306 304 300 297 295 286 272 258 248 247 245 236 246 261 264 252 244 245 235 212 202 202 196 199 204 210 213 213 214 213 213 213 212 206 206 214 218 236 276 300 322 340 321 317 286 300 324 280 287 44 126 140 195 173 165 234 230 215 199 174 179 176 170 172 175 180 181 182 184 186 189 191 192
348 346 343 341 339 336 334 334 333 331 328 326 325 321 315 312 310 306 303 298 289 274 254 239 233 224 234 258 266 268 257 243 241 237 223 223 222 204 197 201 209 213 214 217 217 219 219 213 207 207 224 230 243 278 314 330 337 352 317 300 316 198 268 306 332 188 208 197 173 169 244 253 216 187 176 177 176 175 174 177 182 183 184 186 188 192 194 195
347 345 343 341 339 337 336 334 334 331 330 331 330 324 320 318 315 310 307 308 312 287 240 226 221 210 235 276 271 262 253 240 234 228 222 225 222 206 197 199 206 211 215 218 219 220 220 212 209 214 225 227 219 214 279 301 299 346 170 250 271 239 279 314 323 249 195 163 177 186 221 267 233 174 171 175 177 176 176 179 183 185 187 188 189 193 195 197
345 343 341 339 338 338 337 337 336 332 332 334 333 328 323 319 310 298 295 326 349 347 192 189 192 214 247 258 263 260 247 234 225 218 216 220 220 216 208 199 201 208 211 214 218 215 204 194 197 213 217 204 159 156 196 243 241 275 189 229 252 235 261 283 309 324 57 134 191 217 227 255 274 165 166 175 178 176 180 183 185 188 190 191 192 194 196 198
343 341 339 338 337 336 338 340 338 336 335 336 339 334 322 311 298 284 279 306 333 345 214 179 155 205 258 241 242 238 209 205 210 210 210 211 216 220 216 205 200 202 197 199 211 198 191 189 176 181 199 190 181 172 198 220 195 192 198 228 265 234 238 251 269 311 356 191 206 221 234 254 295 170 168 176 179 180 185 187 187 189 191 193 194 195 198 200
341 340 338 336 336 336 338 341 341 341 339 339 345 337 319 313 298 277 270 290 300 266 255 198 174 204 269 244 246 235 222 224 223 215 207 205 208 213 213 210 205 195 174 162 199 185 179 181 177 194 208 195 196 196 201 175 140 173 179 187 234 239 245 246 255 273 301 287 248 225 229 238 234 187 179 178 180 184 188 186 186 191 194 196 197 199 200 203
340 339 336 335 336 335 338 343 343 347 349 348 352 349 349 350 329 289 299 291 272 259 268 254 230 247 262 264 269 262 248 244 241 224 210 208 203 199 201 200 196 187 165 145 184 178 170 184 216 207 206 195 198 204 199 177 176 210 206 206 232 247 260 259 268 272 262 280 263 238 229 237 215 195 188 179 180 185 185 183 188 192 196 199 200 202 204 207
340 338 336 335 335 334 338 343 343 352 360 354 -0 27 35 19 5 319 319 303 282 271 269 265 256 256 260 260 262 268 274 273 252 225 208 211 200 188 190 187 172 186 183 154 151 160 172 204 223 204 194 184 190 190 184 190 202 225 239 251 259 250 261 268 264 264 256 278 279 272 252 248 221 202 192 178 180 189 187 185 192 195 197 201 202 203 206 209
339 338 336 334 333 333 336 343 345 356 358 351 14 43 37 15 359 325 316 299 292 290 277 271 264 259 259 256 255 258 264 271 254 230 205 196 196 185 179 180 178 186 177 156 150 156 195 224 212 188 181 171 180 178 173 188 193 208 224 228 252 245 268 278 264 268 238 216 272 278 257 257 225 189 189 188 190 196 194 192 194 194 195 199 202 204 206 207
338 337 335 333 332 332 334 343 347 352 353 350 35 29 13 356 349 330 310 276 287 291 278 268 260 255 254 251 248 244 237 234 242 234 210 190 193 189 173 172 186 178 166 183 189 182 210 236 191 174 175 171 181 178 167 178 189 196 194 201 239 226 225 272 277 309 270 209 257 270 256 286 263 173 195 204 203 203 203 204 203 197 196 200 203 204 204 204
339 337 335 333 331 330 334 343 345 341 348 351 33 6 353 342 340 332 317 268 276 285 275 268 257 251 249 247 243 227 220 218 223 226 210 192 185 182 179 177 172 178 190 197 199 199 224 249 177 165 173 180 191 188 166 174 211 215 202 214 234 205 205 249 286 324 323 297 283 64 339 314 225 186 207 209 207 212 212 212 215 210 206 207 208 206 205 206
343 341 337 334 333 331 333 342 344 339 345 351 296 333 334 332 331 333 325 277 277 278 273 266 248 248 243 234 228 213 209 219 223 221 207 195 186 168 174 181 169 192 201 191 196 214 232 235 161 159 174 183 193 205 186 180 210 235 221 219 219 187 206 253 314 354 345 315 277 159 289 298 268 214 216 197 200 214 211 208 214 214 211 213 213 210 209 211
346 344 340 336 336 333 334 346 345 337 345 350 286 315 317 323 329 328 328 313 294 259 224 224 219 236 216 196 192 180 178 235 233 223 206 199 194 175 158 174 178 202 191 173 192 224 216 181 151 167 180 180 195 216 200 174 202 243 219 195 189 181 203 227 231 305 279 267 265 177 187 268 306 259 222 191 198 211 209 211 215 212 211 212 213 211 210 212
346 345 342 338 341 340 339 347 344 334 339 320 303 312 310 318 329 318 335 5 290 217 145 175 195 152 168 184 170 152 138 235 223 216 204 197 194 185 177 174 180 193 158 137 217 214 165 164 168 181 177 182 204 215 188 166 200 240 157 138 157 175 199 206 193 215 228 255 280 222 169 245 280 252 218 188 200 216 214 220 220 213 213 213 214 213 212 212
347 345 343 339 343 344 340 345 347 335 329 319 312 312 312 315 313 274 88 338 275 168 122 158 111 109 143 172 171 169 267 130 130 212 200 190 188 184 188 187 179 180 159 161 207 195 152 172 186 184 182 198 205 196 172 172 206 219 122 130 148 158 179 178 173 215 223 258 274 248 172 223 267 265 221 173 192 219 218 222 222 214 215 215 214 215 214 214
349 347 344 340 342 343 338 347 353 335 318 316 315 310 312 308 280 120 100 267 259 67 56 121 89 64 117 153 187 213 294 37 31 197 183 183 189 187 195 193 174 166 180 190 205 192 165 190 192 182 191 210 196 179 173 181 208 200 139 151 124 129 145 140 171 209 180 220 251 247 179 209 268 275 185 167 195 217 219 222 223 218 217 216 215 216 216 216
349 348 344 343 345 341 335 343 350 336 317 314 317 313 315 295 161 108 183 239 268 355 12 87 63 339 100 130 218 252 270 306 6 145 168 180 189 186 176 177 163 140 190 215 214 215 240 196 190 184 201 206 191 185 186 186 190 156 149 206 287 348 45 73 143 109 267 256 245 226 182 192 262 249 177 183 199 205 212 220 224 224 223 221 218 216 217 216
349 347 344 346 347 342 338 336 336 334 318 311 316 315 310 269 113 157 211 256 335 340 8 31 16 359 15 172 262 254 247 281 20 140 168 177 180 178 145 155 161 131 173 226 222 230 274 190 183 198 203 193 171 194 205 185 177 164 138 148 224 321 -0 307 -0 82 235 253 230 194 171 175 240 240 190 207 208 199 203 211 214 217 221 222 219 217 218 217
347 344 344 347 344 342 348 338 328 328 319 311 311 305 217 156 223 211 237 327 346 336 11 338 325 355 318 276 250 214 215 238 188 157 178 180 177 183 170 170 172 156 194 215 198 213 232 223 224 224 204 186 159 190 211 160 167 181 146 130 168 265 279 216 230 190 234 252 228 175 158 188 239 237 197 210 217 207 205 211 211 211 217 219 218 218 218 216
346 343 344 348 350 356 352 342 333 330 328 318 305 312 105 176 228 216 242 303 14 343 348 296 306 316 280 288 296 238 213 215 198 176 186 182 178 191 193 184 172 161 182 188 161 160 227 248 234 221 212 186 171 174 192 178 170 177 163 150 170 188 194 213 229 245 250 261 254 167 148 236 269 253 202 201 211 213 211 214 215 214 216 217 218 219 216 214
344 342 345 356 16 8 351 345 342 339 337 326 306 358 141 214 245 225 246 278 22 357 339 317 310 305 270 272 346 353 285 272 283 168 174 162 174 196 198 196 188 167 111 149 171 177 198 239 217 206 202 172 180 192 179 156 162 180 156 138 169 181 179 194 203 216 235 263 274 157 156 213 232 243 217 198 203 209 211 216 217 219 220 220 221 218 213 213
340 340 348 8 14 359 348 341 341 339 334 326 320 196 198 219 267 11 296 309 3 356 332 318 304 314 321 308 -0 13 25 342 353 352 177 160 170 193 191 201 204 175 136 172 195 173 201 235 228 207 191 165 182 198 157 134 161 191 128 131 206 190 153 190 198 181 180 302 276 206 210 222 210 260 256 216 211 206 208 217 217 221 225 225 224 217 211 214
337 339 351 14 2 355 346 335 334 331 327 329 160 224 229 234 251 157 351 354 2 340 327 321 336 44 336 324 356 357 354 354 359 2 164 152 128 119 208 210 212 193 175 193 205 156 191 233 227 157 184 190 186 176 161 164 173 168 154 184 204 141 135 217 246 184 116 262 259 218 251 290 303 282 269 224 220 210 205 214 215 221 226 226 224 217 212 214
339 339 347 3 355 351 342 332 327 320 319 309 191 245 248 285 287 150 8 1 337 325 344 348 345 33 -0 341 346 348 344 341 359 12 329 182 68 8 314 321 354 313 330 326 237 182 166 240 238 153 193 222 189 168 177 177 152 134 189 193 120 84 140 184 245 279 240 250 276 234 230 270 275 271 271 193 206 223 212 208 214 222 226 226 225 220 216 216
339 337 344 359 350 343 338 330 319 308 301 167 233 268 250 301 333 358 355 348 323 301 56 75 278 46 43 355 325 344 350 350 352 357 341 238 47 16 352 324 347 351 340 337 271 218 186 248 264 189 193 212 165 161 191 193 175 169 182 169 131 130 187 162 183 228 222 242 278 278 254 241 211 230 258 198 207 223 219 211 212 220 223 224 225 224 221 220
340 337 346 360 348 339 335 324 303 277 182 157 246 258 274 298 323 330 331 334 314 284 269 224 248 23 14 346 343 339 351 5 338 327 23 27 31 32 20 342 313 330 328 325 192 230 219 200 265 239 190 160 135 166 192 209 220 220 130 156 159 167 178 171 179 181 186 224 257 299 291 253 221 203 184 205 219 217 218 216 211 217 220 220 222 224 223 222
343 338 344 357 349 339 344 342 311 172 146 221 233 262 328 318 309 320 334 344 311 267 312 274 325 352 305 343 17 340 354 7 335 312 38 24 65 67 20 2 324 322 323 322 170 276 282 193 241 287 158 148 161 196 191 193 210 207 186 193 189 167 153 164 200 168 165 194 200 254 269 258 242 197 179 199 216 213 214 215 213 218 218 218 220 222 224 224
347 335 334 355 353 349 11 51 46 14 48 313 327 327 326 317 310 323 343 358 340 252 274 284 296 296 272 345 15 358 357 317 300 327 51 24 38 52 5 357 331 316 322 351 28 7 9 208 228 240 188 184 205 208 197 194 195 190 198 202 190 177 130 149 243 239 175 192 182 194 255 262 248 196 187 198 209 214 214 211 217 223 221 220 221 222 225 226
350 315 333 359 2 360 21 64 25 1 37 352 339 321 315 307 314 331 342 357 358 298 292 289 283 328 357 354 0 4 3 306 303 351 69 53 52 51 356 353 344 331 339 17 10 346 353 236 238 232 217 216 228 224 212 209 202 194 201 199 186 175 148 174 227 223 185 222 159 137 255 268 247 195 193 201 207 215 216 209 212 225 225 224 223 225 227 228
338 310 336 11 16 10 25 61 11 10 7 345 337 327 329 321 332 350 344 349 354 333 329 341 19 39 26 354 6 1 359 15 20 38 72 67 60 37 6 358 353 351 3 20 345 332 335 245 224 278 304 280 273 290 303 272 203 201 215 199 182 187 187 200 211 173 182 217 173 191 251 269 270 212 203 216 220 224 230 223 218 225 229 228 226 228 229 231
326 311 332 15 25 32 42 40 7 1 338 345 341 338 348 345 345 347 334 331 344 338 326 331 -0 36 350 328 15 18 10 31 50 54 58 62 86 36 11 358 356 6 15 8 352 333 327 298 164 292 255 243 266 289 299 309 212 213 226 206 198 195 192 205 187 135 207 207 176 201 240 248 281 280 243 252 250 251 252 236 225 230 236 234 230 230 232 233
331 316 327 355 10 40 53 39 24 1 340 345 335 331 350 344 340 340 330 333 1 356 317 299 326 16 18 6 26 33 32 51 56 33 35 11 71 49 8 350 348 1 357 359 358 341 266 249 106 149 213 215 219 224 223 261 276 258 230 209 208 200 192 198 187 182 224 205 177 203 237 252 289 291 251 252 251 256 261 249 236 239 245 245 239 237 237 235
339 320 320 340 353 27 43 33 28 7 342 346 332 324 344 336 336 342 338 356 11 354 330 322 358 19 30 21 29 36 23 26 15 2 18 1 4 36 353 337 337 347 352 3 360 347 180 27 130 179 219 217 240 254 237 284 291 286 290 231 213 207 201 201 209 208 198 179 201 218 212 232 267 253 232 241 236 243 258 263 251 241 243 246 243 242 240 237
348 322 335 337 338 0 10 9 15 0 332 341 326 286 328 334 344 352 347 357 357 345 332 50 39 35 24 9 20 59 11 357 352 11 27 4 342 341 334 319 330 354 2 13 -0 356 85 354 314 160 270 259 294 287 279 284 263 259 282 262 228 214 204 206 220 206 150 169 230 229 190 206 246 239 227 230 225 233 247 252 253 246 244 249 251 251 249 244
336 302 325 330 314 351 353 338 342 334 321 329 316 281 326 339 346 355 350 339 344 347 348 36 40 37 23 4 -0 15 6 355 351 29 39 8 345 344 336 310 346 6 9 19 5 20 124 262 298 11 335 302 290 282 276 278 253 238 255 258 249 232 213 214 220 197 161 201 236 225 186 198 231 234 230 228 213 215 230 237 247 255 258 265 268 266 260 253
300 288 307 320 308 307 305 304 313 317 318 326 317 311 333 337 334 339 350 331 331 355 11 3 8 9 3 4 359 326 31 29 352 354 13 356 350 350 333 304 350 9 8 6 352 7 128 265 315 352 330 308 293 279 272 280 278 266 263 256 255 247 232 227 224 205 199 223 240 221 188 197 219 219 222 231 219 213 231 243 245 252 259 264 267 268 267 262
303 292 301 309 297 290 288 291 302 308 317 327 322 329 342 333 327 331 335 312 293 329 11 358 348 349 343 343 337 281 272 339 316 293 302 343 345 331 296 289 331 357 358 344 328 347 24 308 330 359 342 306 296 296 302 303 298 286 272 261 258 256 249 242 232 216 212 225 239 235 207 209 239 242 237 251 254 257 269 265 253 251 251 251 258 267 271 268
304 300 305 305 294 296 292 289 304 302 307 329 323 335 343 328 323 326 318 293 254 251 358 344 332 332 324 315 300 272 299 326 293 280 289 285 271 258 260 292 326 345 344 311 311 342 12 273 342 24 8 293 293 324 325 317 312 289 267 262 257 251 252 250 234 215 210 211 223 236 229 225 246 254 256 266 273 274 261 251 252 253 251 249 257 264 266 269
313 307 310 307 292 305 303 293 306 294 284 332 328 327 328 312 313 320 312 302 305 316 333 334 324 321 312 298 297 306 323 323 307 297 293 278 263 258 254 258 263 261 255 294 321 294 220 204 335 29 15 286 288 314 324 321 314 283 262 264 251 235 234 244 245 229 215 204 209 227 227 216 211 208 226 251 257 252 247 244 249 257 258 254 257 260 263 268